Location: ASU Dark Sky Observatory
(36.2504°N, 81.4125°W)
Time: 14:13:54
(UTC-04:00)

ETS-7 - Visible Passes

Search period start: 02 July 2015 00:00
Search period end: 12 July 2015 00:00
Orbit: 337 x 342 km, 35.0° (Epoch: 01 July)

Date Brightness Start Highest point End Pass type
(mag) Time Alt. Az. Time Alt. Az. Time Alt. Az.
02 Jul 2.2 04:45:46 39° SSW 04:46:20 47° SSE 04:49:06 10° E visible
03 Jul 1.8 05:05:48 20° WSW 05:07:35 66° S 05:10:26 10° E visible
04 Jul 4.3 03:54:35 17° E 03:54:35 17° E 03:55:26 10° E visible
04 Jul 1.8 05:25:56 10° W 05:28:46 65° S 05:31:38 10° ESE visible
05 Jul 2.9 04:14:38 38° ESE 04:14:38 38° ESE 04:16:36 10° E visible
06 Jul 1.7 04:34:44 63° SSW 04:34:47 63° S 04:37:38 10° ESE visible
07 Jul 2.2 04:55:00 34° SW 04:55:43 43° SSW 04:58:28 10° ESE visible
08 Jul 3.1 05:15:27 19° SW 05:16:30 23° SSW 05:18:52 10° SE visible
09 Jul 4.0 05:36:12 10° SW 05:37:07 11° SSW 05:38:07 10° S visible
